Tracking 30703 objects as of 13-Jun-2025
HD Live streaming from Space Station
objects crossing your sky now

METEOR 2-17 DEB

Track METEOR 2-17 DEB now!
10-day predictions


NORAD ID: 28993
Int'l Code: 1988-005H
Perigee: 898.2 km
Apogee: 913.3 km
Inclination: 82.5 °
Period: 103.0 minutes
Semi major axis: 7276 km
RCS: 0.0011 m2 (small)
Launch date: January 30, 1988
Source: Commonwealth of Independent States (former USSR) (CIS)
Launch site: PLESETSK MISSILE AND SPACE COMPLEX (PKMTR)

Note: This is SATELLITE DEBRIS
Your satellite tracking list
Your tracking list is empty




NASA's NSSDC Master Catalog

Two Line Element Set (TLE):
1 28993U 88005H   25161.38445313  .00002085  00000-0  14430-2 0  9997
2 28993  82.5304 211.1930 0010416 261.9833  98.0154 13.98606597538351
Source of the keplerian elements: AFSPC